Weather History for Fort Bridger AP, Fort Bridger, WY

Change the Weather History Date:

Thursday, December 5, 2013

  Actual Average (KEVW) Record (KEVW)
Temperature  
Mean Temperature -4 °F 22 °F  
Max Temperature 5 °F 30 °F 47 °F (2014)
Min Temperature -12 °F 14 °F -10 °F (2013)
Degree Days  
Heating Degree Days 68 43  
Month to date heating degree days 213  
Since 1 July heating degree days 2322  
Cooling Degree Days 0 0  
Month to date cooling degree days 0  
Year to date cooling degree days 162  
Moisture  
Dew Point -8 °F    
Average Humidity 79    
Maximum Humidity 86    
Minimum Humidity 72    
Precipitation  
Precipitation 0.00 in 0.02 in 0.04 in (2001)
Month to date precipitation 0.11  
Year to date precipitation 11.66  
Sea Level Pressure  
Sea Level Pressure 29.87 in    
Wind  
Wind Speed 7 mph (WSW)    
Max Wind Speed 13 mph    
Max Gust Speed -    
Visibility 10 miles    
Events      
T = Trace of Precipitation, MM = Missing Value Source: NWS Daily Summary

Daily Weather History Graph

Daily Weather History Graph

Search for Another Location

Airport:

Trip Planner

Search our weather history database for the weather conditions in past years. The results will help you decide how hot, cold, wet, or windy it might be!

Date:

Astronomy

Dec. 05, 2013 Rise Set
Actual Time 7:32 AM MST 4:52 PM MST
Civil Twilight 7:01 AM MST 5:23 PM MST
Nautical Twilight 6:27 AM MST 5:57 PM MST
Astronomical Twilight 5:53 AM MST 6:31 PM MST
Moon 9:54 AM MST (12/5) 8:18 PM MST (12/5)
Length of Visible Light 10h 21m
Length of Day
9h 19m
Waxing Crescent, 11% of the Moon is Illuminated
Dec 5
Waxing Crescent
Dec 9
First Quarter
Dec 17
Full
Dec 25
Last Quarter
Jan 1
New

Hourly Weather History & Observations

Time (MST) Temp. Windchill Dew Point Humidity Pressure Visibility Wind Dir Wind Speed Gust Speed Precip Events Conditions
12:00 AM -3.3 °F -19.3 °F -6.9 °F 85% 29.92 in 10.0 mi WSW 9.2 mph - N/A   Clear
12:15 AM -4.2 °F -21.4 °F -8.0 °F 84% 29.91 in 10.0 mi WSW 10.4 mph - N/A   Clear
12:35 AM -4.9 °F -20.1 °F -8.7 °F 84% 29.92 in 10.0 mi WSW 8.1 mph - N/A   Clear
12:55 AM -2.4 °F -20.9 °F -6.2 °F 84% 29.90 in 10.0 mi WSW 12.7 mph - N/A   Clear
1:15 AM -2.0 °F -20.5 °F -6.0 °F 83% 29.90 in 10.0 mi WSW 12.7 mph - N/A   Clear
1:35 AM -2.6 °F -20.3 °F -6.7 °F 82% 29.89 in 10.0 mi WSW 11.5 mph - N/A   Clear
1:55 AM -3.5 °F -20.5 °F -8.0 °F 81% 29.89 in 10.0 mi WSW 10.4 mph - N/A   Clear
2:15 AM -3.6 °F -19.7 °F -8.1 °F 81% 29.89 in 10.0 mi WSW 9.2 mph - N/A   Clear
2:35 AM -4.5 °F -21.9 °F -9.4 °F 80% 29.89 in 10.0 mi WSW 10.4 mph - N/A   Clear
2:55 AM -4.0 °F -17.8 °F -9.4 °F 78% 29.89 in 10.0 mi WSW 6.9 mph - N/A   Clear
3:15 AM -4.4 °F -20.6 °F -10.3 °F 76% 29.89 in 10.0 mi WSW 9.2 mph - N/A   Clear
3:35 AM -4.4 °F -19.5 °F -10.7 °F 74% 29.89 in 10.0 mi WSW 8.1 mph - N/A   Clear
4:00 AM -6.7 °F -22.3 °F -13.2 °F 73% 29.88 in 10.0 mi WSW 8.1 mph - N/A   Clear
4:15 AM -7.8 °F -23.6 °F -13.7 °F 75% 29.87 in 10.0 mi WSW 8.1 mph - N/A   Clear
4:35 AM -7.8 °F -24.8 °F -13.7 °F 75% 29.87 in 10.0 mi WSW 9.2 mph - N/A   Clear
4:55 AM -7.6 °F -22.1 °F -13.7 °F 75% 29.87 in 10.0 mi WSW 6.9 mph - N/A   Clear
5:15 AM -8.0 °F -22.5 °F -14.3 °F 74% 29.87 in 10.0 mi West 6.9 mph - N/A   Clear
5:35 AM -9.9 °F -23.4 °F -16.4 °F 73% 29.86 in 10.0 mi West 5.8 mph - N/A   Clear
5:55 AM -9.6 °F -24.5 °F -15.5 °F 75% 29.86 in 10.0 mi West 6.9 mph - N/A   Clear
6:15 AM -8.9 °F -23.6 °F -15.2 °F 74% 29.86 in 10.0 mi West 6.9 mph - N/A   Clear
6:35 AM -8.5 °F -21.6 °F -14.1 °F 77% 29.86 in 10.0 mi West 5.8 mph - N/A   Mostly Cloudy
6:55 AM -9.9 °F -23.4 °F -16.6 °F 72% 29.87 in 10.0 mi SSW 5.8 mph - N/A   Overcast
7:15 AM -10.5 °F -19.8 °F -15.0 °F 80% 29.87 in 10.0 mi South 3.5 mph - N/A   Overcast
7:35 AM -9.4 °F -18.6 °F -14.1 °F 80% 29.87 in 10.0 mi South 3.5 mph - N/A   Overcast
7:55 AM -7.1 °F -18.1 °F -12.3 °F 78% 29.87 in 10.0 mi WSW 4.6 mph - N/A   Scattered Clouds
8:15 AM -12.1 °F -24.0 °F -17.1 °F 78% 29.88 in 10.0 mi NW 4.6 mph - N/A   Scattered Clouds
8:35 AM -9.4 °F - -13.9 °F 81% 29.88 in 7.0 mi Calm Calm - N/A   Mostly Cloudy
8:55 AM -5.3 °F -16.0 °F -10.7 °F 77% 29.88 in 7.0 mi West 4.6 mph - N/A   Scattered Clouds
9:15 AM -5.1 °F -13.6 °F -10.1 °F 79% 29.89 in 10.0 mi West 3.5 mph - N/A   Clear
9:35 AM -6.5 °F -17.5 °F -11.4 °F 79% 29.89 in 10.0 mi SE 4.6 mph - N/A   Clear
9:55 AM -6.0 °F -18.6 °F -10.3 °F 82% 29.89 in 10.0 mi SW 5.8 mph - N/A   Clear
10:15 AM -4.0 °F -12.4 °F -8.5 °F 81% 29.89 in 10.0 mi WSW 3.5 mph - N/A   Clear
10:35 AM -1.1 °F -9.1 °F -6.2 °F 79% 29.89 in 10.0 mi WSW 3.5 mph - N/A   Scattered Clouds
10:55 AM -0.8 °F - -6.5 °F 77% 29.90 in 10.0 mi Calm Calm - N/A   Clear
11:15 AM 0.1 °F - -5.6 °F 77% 29.89 in 10.0 mi Calm Calm - N/A   Clear
11:35 AM -1.5 °F - -6.9 °F 78% 29.88 in 10.0 mi North - - N/A   Clear
11:55 AM 0.5 °F - -4.5 °F 79% 29.87 in 10.0 mi North - - N/A   Clear
12:15 PM 3.7 °F -3.6 °F -2.6 °F 75% 29.86 in 10.0 mi WSW 3.5 mph - N/A   Clear
12:35 PM 3.9 °F - -2.2 °F 76% 29.86 in 10.0 mi Calm Calm - N/A   Clear
12:55 PM 1.8 °F - -3.1 °F 80% 29.85 in 10.0 mi Calm Calm - N/A   Clear
1:15 PM 3.4 °F -4.0 °F -2.2 °F 78% 29.84 in 10.0 mi West 3.5 mph - N/A   Clear
1:35 PM 4.1 °F -3.2 °F -1.7 °F 77% 29.84 in 10.0 mi WSW 3.5 mph - N/A   Clear
1:55 PM 4.8 °F - -1.3 °F 76% 29.84 in 10.0 mi Calm Calm - N/A   Clear
2:15 PM 2.8 °F -6.6 °F -1.8 °F 81% 29.84 in 10.0 mi SSW 4.6 mph - N/A   Clear
2:35 PM 5.0 °F -2.1 °F -0.4 °F 78% 29.84 in 10.0 mi WSW 3.5 mph - N/A   Clear
2:55 PM 5.0 °F -4.1 °F -0.6 °F 78% 29.84 in 10.0 mi West 4.6 mph - N/A   Clear
3:15 PM 4.6 °F -2.5 °F -0.6 °F 79% 29.84 in 10.0 mi West 3.5 mph - N/A   Clear
3:35 PM 4.1 °F -5.1 °F -1.1 °F 79% 29.84 in 10.0 mi West 4.6 mph - N/A   Clear
3:55 PM 3.0 °F -6.4 °F -2.2 °F 79% 29.84 in 10.0 mi SW 4.6 mph - N/A   Clear
4:15 PM 1.6 °F -9.7 °F -3.6 °F 79% 29.85 in 10.0 mi SW 5.8 mph - N/A   Clear
4:35 PM 0.7 °F -9.1 °F -4.0 °F 81% 29.85 in 10.0 mi WSW 4.6 mph - N/A   Clear
4:55 PM -2.6 °F -16.0 °F -6.3 °F 84% 29.85 in 10.0 mi SW 6.9 mph - N/A   Clear
5:15 PM -2.0 °F -13.9 °F -5.3 °F 86% 29.86 in 10.0 mi SW 5.8 mph - N/A   Clear
5:35 PM -3.3 °F -16.9 °F -6.5 °F 86% 29.86 in 10.0 mi SW 6.9 mph - N/A   Scattered Clouds
5:55 PM -4.0 °F -16.3 °F -7.6 °F 85% 29.86 in 10.0 mi West 5.8 mph - N/A   Scattered Clouds
6:15 PM -2.7 °F -14.8 °F -6.2 °F 85% 29.87 in 10.0 mi West 5.8 mph - N/A   Scattered Clouds
6:35 PM -1.1 °F -12.9 °F -4.5 °F 85% 29.87 in 10.0 mi WSW 5.8 mph - N/A   Clear
6:55 PM -1.3 °F -11.4 °F -5.1 °F 84% 29.87 in 10.0 mi WSW 4.6 mph - N/A   Clear
7:15 PM -0.9 °F -11.0 °F -4.2 °F 86% 29.87 in 10.0 mi West 4.6 mph - N/A   Clear
7:40 PM -1.3 °F -13.1 °F -5.6 °F 82% 29.88 in 10.0 mi WSW 5.8 mph - N/A   Scattered Clouds
7:55 PM -1.1 °F -12.9 °F -5.6 °F 81% 29.88 in 10.0 mi WSW 5.8 mph - N/A   Scattered Clouds
8:15 PM -1.5 °F -13.3 °F -6.0 °F 81% 29.89 in 10.0 mi WSW 5.8 mph - N/A   Scattered Clouds
8:35 PM -1.3 °F -14.5 °F -5.8 °F 81% 29.89 in 10.0 mi WSW 6.9 mph - N/A   Scattered Clouds
8:55 PM -0.9 °F -11.0 °F -5.4 °F 81% 29.89 in 10.0 mi WSW 4.6 mph - N/A   Scattered Clouds
9:15 PM -1.1 °F -11.2 °F -5.6 °F 81% 29.89 in 10.0 mi WSW 4.6 mph - N/A   Mostly Cloudy
9:40 PM -2.2 °F -15.6 °F -7.1 °F 80% 29.89 in 10.0 mi WSW 6.9 mph - N/A   Mostly Cloudy
10:00 PM -2.6 °F -17.3 °F -8.1 °F 77% 29.89 in 10.0 mi WSW 8.1 mph - N/A   Overcast
10:15 PM -3.1 °F -19.1 °F -8.5 °F 78% 29.89 in 10.0 mi WSW 9.2 mph - N/A   Mostly Cloudy
10:40 PM -2.2 °F -18.0 °F -7.6 °F 78% 29.89 in 10.0 mi WSW 9.2 mph - N/A   Clear
11:00 PM -1.5 °F -17.1 °F -6.9 °F 78% 29.89 in 10.0 mi WSW 9.2 mph - N/A   Clear
11:15 PM -1.5 °F -17.1 °F -7.4 °F 76% 29.89 in 10.0 mi WSW 9.2 mph - N/A   Clear
11:55 PM -1.5 °F -17.1 °F -7.6 °F 75% 29.89 in 10.0 mi WSW 9.2 mph - N/A   Clear